Location: Newark
(59.4564°N, 26.6917°E)
Time: 21:43:10
(UTC+00:00)

S-56A Canister/Altair - Pass Details

Date: 21 November 2019
Orbit: 633 x 2499 km, 38.9° (Epoch: 10 December)

Event Time Altitude Azimuth Distance (km) Brightness Sun altitude
Rises 16:26:09 0° 235° (SW) 4,888 12.7 -20.5°
Reaches altitude 10° 16:31:29 10° 215° (SW) 3,461 11.4 -21.2°
Maximum altitude 16:35:36 15° 186° (S) 2,775 10.4 -21.7°
Drops below altitude 10° 16:39:05 10° 155° (SSE) 2,814 10.2 -22.1°
Enters shadow 16:39:26 - 152° (SSE) 2,854 10.2 -22.2°
Sets 16:42:39 0° 131° (SE) 3,472 - -22.6°
